GFSFLT2_sfc_rhum_021.txt.gz
RH
15 14 13 18 19 15 20 51 27 27 24 21 20 23 29 28 26 29 30 30 32 33 35 38 42 53 61 66 67 78 79 77
13 14 15 15 14 21 23 24 24 22 24 23 25 18 30 36 33 31 29 29 29 30 31 35 38 45 55 60 62 68 75 73
14 17 16 19 18 20 17 19 18 22 16 14 19 24 28 34 32 28 30 27 27 28 28 32 36 42 53 58 60 60 70 71
18 16 10 13 14 18 20 21 24 15 14 16 13 14 23 27 26 29 28 27 25 24 27 32 37 40 53 56 60 58 64 68
21 18 19 17 18 13 16 20 17 20 18 14 14 17 24 24 30 30 29 30 28 32 31 32 37 40 52 55 60 58 64 68
30 23 21 19 16 15 14 19 16 15 16 16 16 15 18 34 33 36 35 31 33 34 35 34 37 42 51 56 58 59 64 69
43 35 28 17 16 13 16 14 16 13 14 11 15 16 15 16 26 30 34 31 32 27 36 37 39 44 48 55 60 59 65 70
49 29 24 23 16 15 12 12 13 13 15 12 11 14 14 12 15 32 30 28 26 24 27 32 35 43 44 55 60 62 67 71
70 41 36 28 18 14 13 12 12 14 13 13 12 13 13 14 20 22 28 24 26 23 22 24 30 37 44 52 55 66 70 70
70 55 50 21 13 12 13 15 16 15 15 16 13 11 14 17 19 25 26 26 24 20 28 31 32 36 39 47 58 67 71 73
68 67 44 25 21 14 17 17 19 14 15 16 17 22 18 20 21 18 23 25 27 29 24 28 32 37 42 49 56 67 72 73
65 62 52 37 60 60 19 19 32 20 19 18 22 22 16 18 24 22 21 25 32 42 45 39 36 38 45 50 56 67 70 71
58 59 48 73 85 69 36 20 46 35 28 30 23 24 23 29 41 38 35 26 26 44 50 40 43 44 49 50 55 56 63 66
61 65 68 82 84 88 84 87 58 49 48 49 57 69 67 77 66 82 94 96 86 38 35 55 53 45 50 53 49 52 56 64
61 65 91 85 94 90 93 97 97 94 92 84 93 99 98 98 97 87 88 97 98 98 86 62 54 59 49 49 50 54 58 61
84 82 92 87 87 90 89 91 88 91 94 95 97 92 90 90 90 81 78 73 92 96 97 97 94 93 71 48 52 56 60 61
86 94 91 87 87 91 80 82 81 82 86 88 85 92 93 96 95 91 89 85 77 86 89 89 91 92 84 89 75 63 59 73
92 94 93 96 92 85 87 84 84 85 90 93 91 96 96 99 99 99 98 94 91 84 83 86 88 89 78 88 98 85 88 93
96 94 90 92 92 80 86 80 78 79 80 84 87 93 94 97 98 100 94 95 96 94 87 92 95 92 91 88 98 97 95 99

GFSFLT2_sfc_rhum_024.txt.gz
RH
17 16 16 25 24 20 27 52 29 29 25 21 23 21 33 31 29 32 33 38 41 42 43 48 52 58 68 74 77 77 76 78
18 16 17 17 18 25 31 37 38 30 27 26 29 23 27 38 35 31 30 33 34 37 39 42 45 52 60 67 74 73 75 75
20 22 20 23 21 25 22 29 32 33 26 21 21 26 20 25 32 29 30 31 32 33 35 38 39 48 56 62 69 70 76 77
22 19 16 16 19 21 24 28 27 28 20 16 16 14 25 24 31 35 35 34 32 30 32 35 39 41 53 58 61 65 73 78
24 18 20 20 19 20 17 27 23 23 21 13 18 19 18 23 28 37 42 41 37 34 34 34 38 42 45 53 54 57 65 73
48 43 41 36 25 20 18 21 20 19 18 21 20 20 19 26 31 29 40 45 42 38 34 35 39 44 48 52 52 56 58 68
55 46 39 36 31 26 23 17 20 16 17 19 20 21 18 19 33 34 39 47 49 40 40 45 46 49 50 54 58 58 64 65
62 40 37 40 32 27 23 20 21 16 20 16 16 20 21 20 23 24 34 41 47 44 44 46 45 51 52 58 60 62 68 68
72 53 45 38 26 22 22 19 17 20 19 16 18 20 18 15 19 21 22 29 44 42 39 41 42 48 50 55 57 65 70 71
79 63 58 35 28 23 19 16 17 16 20 18 16 16 15 15 14 19 21 31 39 38 36 36 34 34 49 53 63 68 72 74
70 71 40 31 50 75 86 54 18 17 18 20 15 17 23 23 22 19 23 28 31 34 36 42 44 50 53 56 64 71 73 75
79 70 62 44 78 68 81 72 30 21 18 17 23 23 22 19 25 23 25 28 33 38 44 42 49 50 54 56 64 70 74 73
73 73 55 42 84 76 51 62 90 90 68 18 21 17 35 43 55 62 52 49 36 46 51 60 58 58 58 58 63 62 66 72
75 79 67 82 81 87 84 92 83 93 88 35 58 84 94 94 96 96 99 98 90 67 70 67 69 68 71 72 64 69 74 76
60 58 72 91 94 91 86 89 86 90 94 90 96 96 94 92 86 84 92 96 96 93 93 94 95 89 76 90 75 72 78 84
88 68 64 93 90 88 85 86 82 83 84 87 91 88 88 85 85 81 79 78 92 91 87 87 90 89 90 91 93 77 81 85
77 71 86 93 88 90 84 83 85 87 89 88 88 96 92 97 98 97 96 92 84 85 87 88 86 84 82 84 95 93 83 84
89 70 87 95 91 86 89 89 92 94 92 94 93 97 98 97 95 93 94 94 94 96 95 96 94 92 88 86 92 99 96 92
90 84 95 94 91 88 90 89 89 92 91 93 94 96 97 96 94 98 93 97 98 97 98 95 95 94 93 95 92 98 99 95

GFSFLT2_sfc_rhum_030.txt.gz
RH
9 10 10 14 14 7 8 10 10 7 9 8 9 9 10 9 10 10 17 24 26 28 31 36 40 45 50 58 67 66 61 70
9 9 9 10 10 11 10 20 19 8 11 9 12 12 11 11 10 11 16 22 24 26 28 31 34 38 46 52 61 62 60 62
11 12 12 11 12 11 9 10 12 11 8 8 11 12 11 10 11 11 14 19 20 22 24 26 30 35 40 46 54 56 57 61
14 9 8 9 12 12 12 20 12 11 8 6 7 7 10 9 10 10 13 14 15 17 20 24 28 30 34 39 42 48 53 62
17 12 11 12 11 10 10 10 20 14 10 8 10 10 12 12 11 12 13 15 16 15 17 21 25 30 30 34 34 36 49 51
18 18 14 17 12 11 11 13 14 13 12 10 9 11 10 10 11 11 15 17 17 17 18 20 26 34 37 31 32 33 37 43
22 24 21 16 13 12 14 14 16 13 13 12 11 11 11 11 11 12 13 13 17 22 24 29 30 36 41 35 35 34 42 42
31 21 21 21 19 17 15 14 14 13 14 10 10 12 13 13 14 13 13 11 11 16 22 27 31 36 36 42 39 40 47 47
31 22 22 27 22 19 18 16 16 19 16 13 13 14 14 13 12 12 13 13 14 14 16 23 26 32 35 43 40 46 52 54
26 27 38 19 14 15 17 16 15 16 16 15 15 14 13 12 12 12 12 12 13 9 11 18 19 15 28 31 49 51 57 58
31 27 22 18 17 17 20 20 14 16 15 13 12 12 14 11 10 12 13 12 12 10 12 16 17 20 24 33 40 49 56 61
26 34 33 20 13 14 19 28 18 23 25 23 25 17 13 11 9 10 11 12 13 12 12 15 23 21 28 31 37 50 52 56
28 29 22 16 18 30 35 44 34 33 34 37 40 33 30 27 27 23 20 18 18 20 21 23 28 27 34 35 38 43 46 47
28 30 29 13 14 23 37 39 37 39 37 40 42 43 47 45 42 34 26 27 29 32 26 26 33 34 39 52 45 48 50 52
24 23 25 21 19 21 29 35 35 44 44 45 46 48 50 49 44 28 32 34 36 25 34 43 48 44 47 55 53 52 56 60
34 28 28 26 25 26 24 27 30 31 38 44 49 51 52 45 40 41 44 50 44 42 43 54 56 53 54 60 57 58 61 62
44 38 33 26 24 24 27 27 25 26 35 45 52 57 50 46 49 50 54 51 49 52 56 61 62 63 61 64 63 59 59 58
41 36 39 41 31 30 28 34 31 37 40 47 66 72 67 56 55 57 59 58 59 58 59 61 60 63 64 64 62 59 57 48
44 39 37 37 39 38 45 44 38 39 41 64 82 81 73 76 77 86 63 63 65 66 65 66 66 70 76 77 67 69 63 64

GFSFLT2_sfc_rhum_033.txt.gz
RH
7 7 8 11 10 6 7 7 7 6 7 6 6 7 8 8 9 10 13 16 19 22 26 31 34 41 46 54 65 68 64 70
8 7 7 9 8 9 8 17 15 9 10 8 11 10 9 10 10 10 10 14 17 20 23 27 29 34 41 47 60 63 61 64
9 10 10 10 10 10 7 8 11 12 9 6 9 10 10 9 9 9 9 12 15 19 21 24 27 30 36 42 52 58 59 62
11 8 8 8 10 11 12 18 9 9 9 6 6 6 8 9 9 8 9 11 15 18 19 21 25 27 31 36 40 50 54 61
16 10 9 10 9 9 9 9 17 11 10 8 8 8 8 9 9 10 11 12 15 15 18 19 21 26 27 32 32 35 48 50
17 16 11 14 10 9 9 11 12 11 10 11 10 12 12 10 10 10 12 12 13 13 14 18 22 29 31 28 29 31 35 41
17 13 13 10 10 9 11 11 13 10 11 10 11 11 10 10 11 12 14 14 14 15 18 22 26 30 33 29 31 31 38 39
23 15 18 17 13 10 9 10 10 10 10 8 9 9 10 10 11 12 12 11 11 12 17 20 23 30 32 36 33 34 42 42
33 22 21 24 16 14 11 10 10 13 12 9 10 11 12 12 12 12 12 11 11 11 12 18 19 25 29 37 37 39 46 47
27 27 37 18 13 12 14 13 11 12 13 12 13 13 12 11 12 13 12 12 11 8 10 13 10 13 24 26 46 48 49 51
30 25 20 16 15 15 17 17 13 14 14 12 12 12 15 12 11 13 12 11 10 9 9 15 11 14 18 27 35 47 50 54
30 31 32 19 14 12 15 21 14 13 14 13 13 17 15 20 19 15 11 10 11 10 10 10 15 12 14 18 28 45 49 52
28 32 22 16 16 16 28 41 20 16 18 21 23 27 34 30 31 31 30 27 23 21 20 20 18 15 28 25 26 34 42 47
26 31 34 15 14 23 33 33 34 37 38 40 36 35 34 33 36 36 35 30 25 24 26 30 26 26 39 44 40 44 45 52
21 21 24 19 21 17 17 27 28 29 27 30 31 35 34 38 40 38 34 31 20 22 33 28 31 35 46 53 52 50 55 61
26 24 23 20 17 16 17 22 23 22 24 23 25 30 37 41 40 37 35 36 35 37 37 36 45 47 48 51 52 56 62 65
31 26 26 25 23 21 20 22 21 20 24 24 23 27 38 48 48 41 44 48 46 47 48 54 58 60 55 55 54 54 56 55
37 33 33 34 27 26 26 24 24 25 25 33 31 36 51 57 56 55 51 52 55 55 57 58 58 60 62 61 63 57 56 50
50 37 32 32 33 28 29 27 24 28 32 36 34 34 60 69 67 73 68 58 57 58 58 61 63 64 64 63 59 60 57 60

GFSFLT2_sfc_rhum_036.txt.gz
RH
9 6 7 10 11 6 8 8 9 8 9 7 8 8 8 8 10 13 14 16 22 28 32 36 37 44 51 64 73 75 73 77
8 7 7 8 8 10 10 20 19 10 13 11 12 11 10 10 9 11 12 15 19 25 29 34 34 38 44 55 68 72 72 72
9 10 10 9 10 10 8 10 14 14 9 9 14 12 11 10 10 10 12 15 17 24 26 31 32 35 40 47 62 68 70 73
15 8 7 8 10 11 13 21 11 12 10 7 9 9 10 9 10 10 13 16 17 20 24 28 33 34 38 42 47 59 67 72
20 13 9 10 9 9 10 10 20 14 10 8 9 9 11 10 11 14 16 15 16 19 23 26 30 34 35 39 39 47 61 64
20 20 13 14 10 9 10 13 14 11 13 12 11 10 10 13 14 13 18 18 18 20 24 25 30 38 38 37 37 40 50 57
18 15 12 10 10 10 12 12 15 11 11 14 15 14 13 12 14 16 19 19 22 21 30 33 36 39 40 36 40 38 47 54
29 20 16 17 10 10 9 9 10 10 10 11 12 14 14 16 17 19 19 17 18 23 25 29 35 40 39 40 39 41 49 49
37 24 22 22 16 11 10 9 9 12 12 12 14 15 15 14 14 14 13 13 15 19 23 27 27 38 40 42 41 46 50 53
36 33 40 20 14 13 13 10 8 10 11 12 16 16 14 13 13 15 15 17 21 12 18 27 17 16 30 38 50 52 58 56
36 33 28 21 17 16 16 15 10 10 10 12 12 13 16 12 12 14 17 19 19 13 15 32 24 26 32 34 48 52 54 60
35 37 34 25 14 11 12 20 16 13 14 12 12 16 31 33 29 29 30 32 35 29 27 19 30 20 37 34 43 53 53 54
32 37 25 23 17 13 24 50 36 34 36 23 23 38 37 32 34 34 36 37 35 37 38 40 40 37 46 39 40 44 50 53
30 36 40 22 18 35 46 38 31 32 33 38 36 34 35 35 40 40 41 38 32 38 41 38 42 46 55 58 56 54 56 58
26 26 32 23 23 20 18 23 32 30 25 28 27 28 29 37 45 46 45 42 35 34 42 42 45 53 58 67 64 60 66 70
29 25 26 22 18 18 19 21 20 22 22 22 27 26 27 30 39 51 54 48 48 53 53 53 51 52 63 64 62 66 70 74
36 35 33 26 22 22 20 22 21 20 21 22 25 26 34 39 49 54 58 58 56 62 62 64 69 73 70 72 67 66 69 70
44 40 47 46 30 26 26 24 25 25 26 25 27 35 41 44 52 61 66 68 64 62 60 60 60 64 68 68 73 70 69 62
57 50 46 46 43 35 35 30 27 28 28 31 29 35 41 46 59 70 72 70 70 72 70 74 74 66 65 68 64 74 73 73